sat.trackr.live / text

‹ back to catalog

STARLINK-5940

NORAD 56012 · 2023-042AC

PAYLOAD ACTIVE UNKNOWN

§ Identity

Operator
Country
US
Launch date
2023-03-24
Launch site
AFETR
Launch vehicle
Mass (kg)
RCS (m²)

Purposes: comms

External: N2YO · Heavens-Above · Gunter

§ Orbital elements

Epoch: 2026-09-20T19:53:08.068704Z

Period
94.27 min
Inclination
43.0018°
Eccentricity
0.0001187
Mean motion
15.27575473 rev/d
Perigee alt
482.2 km
Apogee alt
483.9 km
Semi-major
6,861.2 km
B*
-1.1101e-5
RAAN
22.8321°
Arg perigee
274.0284°
Mean anomaly
86.0432°
Rev number
19,288

§ Raw data

STARLINK-59401 56012U 23042AC  26263.82856561 -.00000567  00000+0 -11101-4 0  99922 56012  43.0018  22.8321 0001187 274.0284  86.0432 15.27575473192881

JSON: /api/v1/satellites/56012 · /tle

For live sub-satellite position, see the globe view (requires WebGL).

§ Visibility from observer

Set your observer location to see the next 7 days of passes ≥ 10°. The values pass through the URL so the page stays shareable.

No JS? Fill the form by hand. The geolocation button needs JavaScript.